Location: Columbia
(38.9520°N, 92.3340°W)
Time: 23:26:55
(UTC-05:00)

SJ-11-01 - Visible Passes

Search period start: 29 March 2015 00:00
Search period end: 08 April 2015 00:00
Orbit: 687 x 702 km, 98.2° (Epoch: 29 March)

Date Brightness Start Highest point End Pass type
(mag) Time Alt. Az. Time Alt. Az. Time Alt. Az.
29 Mar 4.3 20:59:34 25° SSE 21:02:15 65° ENE 21:06:58 10° N visible
29 Mar 7.1 22:38:30 10° WSW 22:40:23 12° W 22:41:59 10° WNW visible
30 Mar 5.8 20:02:16 10° ESE 20:05:19 18° ENE 20:08:33 10° NNE visible
30 Mar 5.2 21:40:17 26° SSW 21:42:36 47° W 21:47:11 10° NNW visible
31 Mar 4.7 20:42:16 18° SE 20:45:24 43° ENE 20:49:54 10° N visible
31 Mar 6.7 22:20:59 14° SW 22:23:14 18° W 22:26:24 10° NW visible
01 Apr 4.5 21:22:59 26° S 21:25:38 72° WSW 21:30:24 10° NNW visible
02 Apr 5.2 20:25:00 12° SE 20:28:33 29° ENE 20:32:41 10° N visible
02 Apr 6.2 22:03:42 18° SW 22:06:09 27° W 22:10:08 10° NW visible
03 Apr 4.2 21:05:42 22° SSE 21:08:43 76° ENE 21:13:29 10° N visible
04 Apr 5.7 20:08:22 10° ESE 20:11:45 20° ENE 20:15:17 10° NNE visible
04 Apr 5.5 21:46:25 21° SSW 21:49:06 40° W 21:53:35 10° NNW visible
05 Apr 4.5 20:48:25 17° SE 20:51:50 50° ENE 20:56:27 10° N visible
05 Apr 6.9 22:27:08 11° SW 22:29:48 16° W 22:32:32 10° NW visible
06 Apr 4.7 21:29:07 22° S 21:32:07 61° W 21:36:51 10° NNW visible
07 Apr 5.0 20:31:07 12° SE 20:34:59 34° ENE 20:39:17 10° N visible
07 Apr 6.4 22:09:50 14° SW 22:12:40 23° W 22:16:24 10° NW visible
